StationID,Date,MaxTemp,MinTemp,Precipitation,Snowfall,SnowDepth
"USR0000ASAK","2012-06-07",62.06,44.96,,,
"USR0000ASAK","2012-06-08",62.96,46.04,,,
"USR0000ASAK","2012-06-09",57.02,42.08,,,
"USR0000ASAK","2012-06-10",64.94,39.92,,,
"USR0000ASAK","2012-06-11",62.96,37.94,,,
"USR0000ASAK","2012-06-12",51.08,46.04,,,
"USR0000ASAK","2012-06-13",55.04,44.06,,,
"USR0000ASAK","2012-06-14",60.98,44.06,,,
"USR0000ASAK","2012-06-15",62.78,38.66,,,
"USR0000ASAK","2012-06-16",65.48,35.96,,,
"USR0000ASAK","2012-06-17",74.48,41.18,,,
"USR0000ASAK","2012-06-18",67.82,48.74,,,
"USR0000ASAK","2012-06-19",68.54,46.04,,,
"USR0000ASAK","2012-06-20",61.52,47.12,,,
"USR0000ASAK","2012-06-21",76.28,44.24,,,
"USR0000ASAK","2012-06-22",73.76,46.40,,,
"USR0000ASAK","2012-06-23",72.32,44.96,,,
"USR0000ASAK","2012-06-24",53.42,48.74,,,
"USR0000ASAK","2012-06-25",51.98,46.94,,,
"USR0000ASAK","2012-06-26",60.26,46.76,,,
"USR0000ASAK","2012-06-27",64.40,42.62,,,
"USR0000ASAK","2012-06-28",54.14,46.76,,,
"USR0000ASAK","2012-06-29",66.38,40.64,,,
"USR0000ASAK","2012-06-30",63.68,40.10,,,
"USR0000ASAK","2012-07-01",62.60,44.24,,,
"USR0000ASAK","2012-07-02",57.74,38.48,,,
"USR0000ASAK","2012-07-03",54.86,46.22,,,
"USR0000ASAK","2012-07-04",62.60,45.50,,,
"USR0000ASAK","2012-07-05",61.52,46.76,,,
"USR0000ASAK","2012-07-06",60.08,46.58,,,
"USR0000ASAK","2012-07-07",64.58,48.56,,,
"USR0000ASAK","2012-07-08",63.14,41.36,,,
"USR0000ASAK","2012-07-09",63.32,37.04,,,
"USR0000ASAK","2012-07-10",62.06,41.00,,,
"USR0000ASAK","2012-07-11",55.04,42.26,,,
"USR0000ASAK","2012-07-12",54.32,48.20,,,
"USR0000ASAK","2012-07-13",62.24,47.30,,,
"USR0000ASAK","2012-07-14",63.50,46.94,,,
"USR0000ASAK","2012-07-15",57.02,47.30,,,
"USR0000ASAK","2012-07-16",65.66,44.06,,,
"USR0000ASAK","2012-07-17",72.86,44.42,,,
"USR0000ASAK","2012-07-18",75.02,42.98,,,
"USR0000ASAK","2012-07-19",73.04,44.96,,,
"USR0000ASAK","2012-07-20",67.82,47.48,,,
"USR0000ASAK","2012-07-21",63.32,52.52,,,
"USR0000ASAK","2012-07-22",62.60,50.72,,,
"USR0000ASAK","2012-07-23",58.28,50.00,,,
"USR0000ASAK","2012-07-24",62.60,45.86,,,
"USR0000ASAK","2012-07-25",70.88,38.84,,,
"USR0000ASAK","2012-07-26",70.70,39.92,,,
"USR0000ASAK","2012-07-27",73.40,43.16,,,
"USR0000ASAK","2012-07-28",68.36,44.60,,,
"USR0000ASAK","2012-07-29",64.94,50.72,,,
"USR0000ASAK","2012-07-30",60.62,50.18,,,
"USR0000ASAK","2012-07-31",66.56,45.32,,,
"USR0000ASAK","2012-08-01",60.08,50.54,,,
"USR0000ASAK","2012-08-02",58.28,50.00,,,
"USR0000ASAK","2012-08-03",63.14,43.52,,,
"USR0000ASAK","2012-08-04",55.94,46.22,,,
"USR0000ASAK","2012-08-05",62.24,47.84,,,
"USR0000ASAK","2012-08-06",67.10,45.50,,,
"USR0000ASAK","2012-08-07",65.66,39.92,,,
"USR0000ASAK","2012-08-08",69.44,38.12,,,
"USR0000ASAK","2012-08-09",69.62,44.78,,,
"USR0000ASAK","2012-08-10",64.40,45.14,,,
"USR0000ASAK","2012-08-11",69.62,44.78,,,
"USR0000ASAK","2012-08-12",68.00,44.24,,,
"USR0000ASAK","2012-08-13",69.98,45.14,,,
"USR0000ASAK","2012-08-14",72.86,51.26,,,
"USR0000ASAK","2012-08-15",65.66,51.26,,,
"USR0000ASAK","2012-08-16",61.16,49.82,,,
"USR0000ASAK","2012-08-17",66.02,43.52,,,
"USR0000ASAK","2012-08-18",59.72,35.96,,,
"USR0000ASAK","2012-08-19",60.44,48.38,,,
"USR0000ASAK","2012-08-20",55.04,47.48,,,
"USR0000ASAK","2012-08-21",65.48,42.62,,,
"USR0000ASAK","2012-08-22",67.64,35.96,,,
"USR0000ASAK","2012-08-23",59.18,46.22,,,
"USR0000ASAK","2012-08-24",60.62,39.74,,,
"USR0000ASAK","2012-08-25",65.84,41.36,,,
"USR0000ASAK","2012-08-26",70.88,39.20,,,
"USR0000ASAK","2012-08-27",67.82,41.72,,,
"USR0000ASAK","2012-08-28",67.64,34.34,,,
"USR0000ASAK","2012-08-29",71.96,34.34,,,
"USR0000ASAK","2012-08-30",61.34,48.02,,,
"USR0000ASAK","2012-08-31",54.86,47.84,,,
"USR0000ASAK","2012-09-01",57.92,41.72,,,
"USR0000ASAK","2012-09-02",55.40,36.86,,,
"USR0000ASAK","2012-09-03",57.02,49.46,,,
"USR0000ASAK","2012-09-04",52.16,42.08,,,
"USR0000ASAK","2012-09-05",55.04,44.78,,,
"USR0000ASAK","2012-09-06",55.22,42.62,,,
"USR0000ASAK","2012-09-07",55.04,35.78,,,
"USR0000ASAK","2012-09-08",59.00,37.76,,,
"USR0000ASAK","2012-09-09",61.88,39.02,,,
"USR0000ASAK","2012-09-10",59.72,27.86,,,
"USR0000ASAK","2012-09-11",55.76,27.14,,,
"USR0000ASAK","2012-09-12",51.08,43.16,,,
"USR0000ASAK","2012-09-13",56.48,40.10,,,
"USR0000ASAK","2012-09-14",54.32,41.54,,,
"USR0000ASAK","2012-09-15",51.98,44.06,,,
"USR0000ASAK","2012-09-16",52.52,47.30,,,
"USR0000ASAK","2012-09-17",53.06,44.96,,,
"USR0000ASAK","2012-09-18",50.36,44.42,,,
"USR0000ASAK","2012-09-19",54.14,47.12,,,
"USR0000ASAK","2012-09-20",54.32,48.02,,,
"USR0000ASAK","2012-09-21",60.26,38.66,,,
"USR0000ASAK","2012-09-22",60.26,50.36,,,
"USR0000ASAK","2012-09-23",54.14,44.96,,,
"USR0000ASAK","2012-09-24",53.96,39.74,,,
"USR0000ASAK","2012-09-25",54.14,43.34,,,
"USR0000ASAK","2012-09-26",51.62,42.80,,,
"USR0000ASAK","2012-09-27",49.82,40.82,,,
"USR0000ASAK","2012-09-28",44.24,33.98,,,
"USR0000ASAK","2012-09-29",47.84,27.14,,,
"USR0000ASAK","2012-09-30",47.84,23.18,,,
"USR0000ASAK","2012-10-01",50.54,22.28,,,
"USR0000ASAK","2012-10-02",50.18,38.12,,,
"USR0000ASAK","2012-10-03",52.52,37.22,,,
"USR0000ASAK","2012-10-04",63.14,44.24,,,
"USR0000ASAK","2012-10-05",46.94,36.68,,,
"USR0000ASAK","2012-10-06",55.94,41.18,,,
"USR0000ASAK","2012-10-07",49.46,41.72,,,
"USR0000ASAK","2012-10-08",49.10,44.78,,,
"USR0000ASAK","2012-10-09",50.36,41.00,,,
"USR0000ASAK","2012-10-10",53.06,29.66,,,
"USR0000ASAK","2012-10-11",48.38,24.62,,,
"USR0000ASAK","2012-10-12",43.88,19.40,,,
"USR0000ASAK","2012-10-13",36.32,21.20,,,
"USR0000ASAK","2012-10-14",41.36,32.54,,,
"USR0000ASAK","2012-10-15",47.12,30.74,,,
"USR0000ASAK","2012-10-16",32.36,27.14,,,
"USR0000ASAK","2012-10-17",41.72,16.88,,,
"USR0000ASAK","2012-10-18",38.30,12.92,,,
"USR0000ASAK","2012-10-19",40.64,9.50,,,
"USR0000ASAK","2012-10-20",41.36,9.14,,,
"USR0000ASAK","2012-10-21",40.64,11.66,,,
"USR0000ASAK","2012-10-22",35.06,5.36,,,
"USR0000ASAK","2012-10-23",34.52,1.94,,,
"USR0000ASAK","2012-10-24",37.22,3.74,,,
"USR0000ASAK","2012-10-25",37.40,5.90,,,
"USR0000ASAK","2012-10-26",34.88,4.46,,,
"USR0000ASAK","2012-10-27",38.12,4.28,,,
"USR0000ASAK","2012-10-28",40.46,7.52,,,
"USR0000ASAK","2012-10-29",41.36,11.66,,,
"USR0000ASAK","2012-10-30",32.72,23.54,,,
"USR0000ASAK","2012-10-31",30.38,24.26,,,
"USR0000ASAK","2012-11-01",29.84,21.92,,,
"USR0000ASAK","2012-11-02",33.98,27.68,,,
"USR0000ASAK","2012-11-03",32.36,18.32,,,
"USR0000ASAK","2012-11-04",33.26,7.52,,,
"USR0000ASAK","2012-11-05",27.14,4.28,,,
"USR0000ASAK","2012-11-06",27.86,-1.66,,,
"USR0000ASAK","2012-11-07",28.40,-7.06,,,
"USR0000ASAK","2012-11-08",26.42,3.38,,,
"USR0000ASAK","2012-11-09",31.82,24.80,,,
"USR0000ASAK","2012-11-10",36.14,26.24,,,
"USR0000ASAK","2012-11-11",35.24,19.94,,,
"USR0000ASAK","2012-11-12",37.76,16.34,,,
"USR0000ASAK","2012-11-13",25.88,13.46,,,
"USR0000ASAK","2012-11-14",28.94,26.42,,,
"USR0000ASAK","2012-11-15",28.04,15.98,,,
"USR0000ASAK","2012-11-16",26.24,-5.62,,,
"USR0000ASAK","2012-11-17",18.14,-10.66,,,
"USR0000ASAK","2012-11-18",21.38,4.28,,,
"USR0000ASAK","2012-11-19",20.48,-6.52,,,
"USR0000ASAK","2012-11-20",14.72,-7.96,,,
"USR0000ASAK","2012-11-21",15.80,-7.42,,,
"USR0000ASAK","2012-11-22",16.52,-4.72,,,
"USR0000ASAK","2012-11-23",21.74,-1.84,,,
"USR0000ASAK","2012-11-24",21.38,-6.34,,,
"USR0000ASAK","2012-11-25",16.70,-6.16,,,
"USR0000ASAK","2012-11-26",12.74,-8.14,,,
"USR0000ASAK","2012-11-27",15.62,-5.26,,,
"USR0000ASAK","2012-11-28",15.98,-9.04,,,
"USR0000ASAK","2012-11-29",27.50,-12.28,,,
"USR0000ASAK","2012-11-30",22.82,-7.60,,,
"USR0000ASAK","2012-12-01",14.36,-9.22,,,
"USR0000ASAK","2012-12-02",10.22,-12.28,,,
"USR0000ASAK","2012-12-03",6.08,-16.42,,,
"USR0000ASAK","2012-12-04",4.82,-17.14,,,
"USR0000ASAK","2012-12-05",1.04,-18.76,,,
"USR0000ASAK","2012-12-06",8.24,-12.10,,,
"USR0000ASAK","2012-12-07",5.54,-13.54,,,
"USR0000ASAK","2012-12-08",22.64,-1.12,,,
"USR0000ASAK","2012-12-09",27.32,21.92,,,
"USR0000ASAK","2012-12-10",28.04,24.62,,,
"USR0000ASAK","2012-12-11",27.14,11.48,,,
"USR0000ASAK","2012-12-12",32.18,25.16,,,
"USR0000ASAK","2012-12-13",34.88,20.30,,,
"USR0000ASAK","2012-12-14",20.12,13.28,,,
"USR0000ASAK","2012-12-15",18.68,-13.90,,,
"USR0000ASAK","2012-12-16",-5.62,-23.08,,,
"USR0000ASAK","2012-12-17",-6.88,-24.70,,,
"USR0000ASAK","2012-12-18",5.36,-14.26,,,
"USR0000ASAK","2012-12-19",14.72,-9.40,,,
"USR0000ASAK","2012-12-20",19.58,-13.72,,,
"USR0000ASAK","2012-12-21",-4.36,-23.08,,,
"USR0000ASAK","2012-12-22",9.50,-25.78,,,
"USR0000ASAK","2012-12-23",10.40,-1.84,,,
"USR0000ASAK","2012-12-24",32.00,10.04,,,
"USR0000ASAK","2012-12-25",33.62,6.26,,,
"USR0000ASAK","2012-12-26",31.46,11.48,,,
"USR0000ASAK","2012-12-27",32.72,26.42,,,
"USR0000ASAK","2012-12-28",40.10,26.24,,,
"USR0000ASAK","2012-12-29",40.82,31.82,,,
"USR0000ASAK","2012-12-30",39.92,35.24,,,
"USR0000ASAK","2012-12-31",39.56,24.62,,,
"USR0000ASAK","2013-01-01",37.58,37.58,,,
"USR0000ASAK","2013-01-02",38.30,26.06,,,
"USR0000ASAK","2013-01-03",37.58,26.42,,,
"USR0000ASAK","2013-01-04",38.30,30.02,,,
"USR0000ASAK","2013-01-05",31.46,21.02,,,
"USR0000ASAK","2013-01-06",34.34,27.68,,,
"USR0000ASAK","2013-01-07",33.62,25.70,,,
"USR0000ASAK","2013-01-08",32.36,17.60,,,
"USR0000ASAK","2013-01-09",21.74,4.46,,,
"USR0000ASAK","2013-01-10",19.22,-0.04,,,
"USR0000ASAK","2013-01-11",25.34,18.50,,,
"USR0000ASAK","2013-01-12",28.58,23.00,,,
"USR0000ASAK","2013-01-13",35.78,24.08,,,
"USR0000ASAK","2013-01-14",37.58,33.62,,,
"USR0000ASAK","2013-01-15",40.46,28.94,,,
"USR0000ASAK","2013-01-16",32.36,23.36,,,
"USR0000ASAK","2013-01-17",26.06,20.66,,,
"USR0000ASAK","2013-01-18",23.54,5.00,,,
"USR0000ASAK","2013-01-19",15.26,-5.98,,,
"USR0000ASAK","2013-01-20",26.06,13.28,,,
"USR0000ASAK","2013-01-21",30.74,20.84,,,
"USR0000ASAK","2013-01-22",34.70,16.88,,,
"USR0000ASAK","2013-01-23",36.14,30.74,,,
"USR0000ASAK","2013-01-24",38.30,23.18,,,
"USR0000ASAK","2013-01-25",41.54,21.56,,,
"USR0000ASAK","2013-01-26",35.78,-8.50,,,
"USR0000ASAK","2013-01-27",10.94,-18.40,,,
"USR0000ASAK","2013-01-28",5.18,-23.26,,,
"USR0000ASAK","2013-01-29",7.52,-21.64,,,
"USR0000ASAK","2013-01-30",15.26,7.34,,,
"USR0000ASAK","2013-01-31",30.92,15.98,,,
"USR0000ASAK","2013-02-01",32.54,27.14,,,
"USR0000ASAK","2013-02-02",30.74,26.78,,,
"USR0000ASAK","2013-02-03",36.68,30.38,,,
"USR0000ASAK","2013-02-04",39.56,23.72,,,
"USR0000ASAK","2013-02-05",36.14,22.28,,,
"USR0000ASAK","2013-02-06",36.68,17.42,,,
"USR0000ASAK","2013-02-07",29.48,20.12,,,
"USR0000ASAK","2013-02-08",27.86,23.18,,,
"USR0000ASAK","2013-02-09",30.74,24.62,,,
"USR0000ASAK","2013-02-10",43.34,28.58,,,
"USR0000ASAK","2013-02-11",39.02,28.58,,,
"USR0000ASAK","2013-02-12",32.54,17.42,,,
"USR0000ASAK","2013-02-13",27.68,20.66,,,
"USR0000ASAK","2013-02-14",35.42,19.22,,,
"USR0000ASAK","2013-02-15",37.04,26.42,,,
"USR0000ASAK","2013-02-16",33.62,13.28,,,
"USR0000ASAK","2013-02-17",28.94,8.42,,,
"USR0000ASAK","2013-02-18",27.14,17.24,,,
"USR0000ASAK","2013-02-19",22.46,-2.02,,,
"USR0000ASAK","2013-02-20",17.42,2.66,,,
"USR0000ASAK","2013-02-21",28.94,17.96,,,
"USR0000ASAK","2013-02-22",31.10,21.56,,,
"USR0000ASAK","2013-02-23",32.18,10.76,,,
"USR0000ASAK","2013-02-24",25.88,12.38,,,
"USR0000ASAK","2013-02-25",31.28,14.54,,,
"USR0000ASAK","2013-02-26",37.04,6.08,,,
"USR0000ASAK","2013-02-27",41.72,29.84,,,
"USR0000ASAK","2013-02-28",40.46,24.44,,,
"USR0000ASAK","2013-03-01",37.76,22.64,,,
"USR0000ASAK","2013-03-02",37.22,22.28,,,
"USR0000ASAK","2013-03-03",36.14,16.52,,,
"USR0000ASAK","2013-03-04",33.08,22.46,,,
"USR0000ASAK","2013-03-05",40.10,23.54,,,
"USR0000ASAK","2013-03-06",46.22,15.98,,,
"USR0000ASAK","2013-03-07",42.44,21.38,,,
"USR0000ASAK","2013-03-08",44.60,28.76,,,
"USR0000ASAK","2013-03-09",50.72,23.00,,,
"USR0000ASAK","2013-03-10",44.60,27.86,,,
"USR0000ASAK","2013-03-11",35.96,26.24,,,
"USR0000ASAK","2013-03-12",41.00,21.92,,,
"USR0000ASAK","2013-03-13",36.50,23.72,,,
"USR0000ASAK","2013-03-14",32.72,3.02,,,
"USR0000ASAK","2013-03-15",26.42,14.36,,,
"USR0000ASAK","2013-03-16",36.50,4.28,,,
"USR0000ASAK","2013-03-17",36.68,-3.10,,,
"USR0000ASAK","2013-03-18",39.92,-0.22,,,
"USR0000ASAK","2013-03-19",36.68,-2.02,,,
"USR0000ASAK","2013-03-20",30.92,-2.56,,,
"USR0000ASAK","2013-03-21",33.08,-1.12,,,
"USR0000ASAK","2013-03-22",35.60,-6.88,,,
"USR0000ASAK","2013-03-23",39.02,20.48,,,
"USR0000ASAK","2013-03-24",41.72,24.26,,,
"USR0000ASAK","2013-03-25",27.32,19.22,,,
"USR0000ASAK","2013-03-26",27.32,7.34,,,
"USR0000ASAK","2013-03-27",28.58,-6.34,,,
"USR0000ASAK","2013-03-28",24.08,-7.42,,,
"USR0000ASAK","2013-03-29",30.74,14.90,,,
"USR0000ASAK","2013-03-30",46.22,28.94,,,
"USR0000ASAK","2013-03-31",46.76,29.66,,,
"USR0000ASAK","2013-04-01",46.40,23.36,,,
"USR0000ASAK","2013-04-02",47.12,25.34,,,
"USR0000ASAK","2013-04-03",49.28,21.20,,,
"USR0000ASAK","2013-04-04",48.20,26.24,,,
"USR0000ASAK","2013-04-05",43.88,22.82,,,
"USR0000ASAK","2013-04-06",42.08,12.02,,,
"USR0000ASAK","2013-04-07",37.22,19.94,,,
"USR0000ASAK","2013-04-08",29.30,7.52,,,
"USR0000ASAK","2013-04-09",30.38,2.48,,,
"USR0000ASAK","2013-04-10",30.02,8.24,,,
"USR0000ASAK","2013-04-11",24.26,8.78,,,
"USR0000ASAK","2013-04-12",28.22,0.14,,,
"USR0000ASAK","2013-04-13",32.18,0.32,,,
"USR0000ASAK","2013-04-14",38.48,5.18,,,
"USR0000ASAK","2013-04-15",46.22,8.78,,,
"USR0000ASAK","2013-04-16",42.26,12.74,,,
"USR0000ASAK","2013-04-17",38.84,14.36,,,
"USR0000ASAK","2013-04-18",44.96,14.00,,,
"USR0000ASAK","2013-04-19",46.94,17.06,,,
"USR0000ASAK","2013-04-20",48.92,15.98,,,
"USR0000ASAK","2013-04-21",42.08,21.92,,,
"USR0000ASAK","2013-04-22",53.96,24.08,,,
"USR0000ASAK","2013-04-23",39.92,35.06,,,
"USR0000ASAK","2013-04-24",41.00,33.98,,,
"USR0000ASAK","2013-04-25",44.06,30.92,,,
"USR0000ASAK","2013-04-26",44.96,24.08,,,
"USR0000ASAK","2013-04-27",44.96,28.94,,,
"USR0000ASAK","2013-04-28",44.96,21.92,,,
"USR0000ASAK","2013-04-29",48.02,19.94,,,
"USR0000ASAK","2013-04-30",42.08,26.06,,,
"USR0000ASAK","2013-05-01",48.02,26.96,,,
"USR0000ASAK","2013-05-02",44.06,33.08,,,
"USR0000ASAK","2013-05-03",42.08,33.98,,,
"USR0000ASAK","2013-05-04",44.96,30.02,,,
"USR0000ASAK","2013-05-05",51.98,24.98,,,
"USR0000ASAK","2013-05-06",48.02,30.92,,,
"USR0000ASAK","2013-05-07",51.08,30.02,,,
"USR0000ASAK","2013-05-08",55.04,28.94,,,
"USR0000ASAK","2013-05-09",55.94,30.02,,,
"USR0000ASAK","2013-05-10",62.06,28.04,,,
"USR0000ASAK","2013-05-11",55.04,39.02,,,
"USR0000ASAK","2013-05-12",57.92,39.92,,,
"USR0000ASAK","2013-05-13",53.06,35.96,,,
"USR0000ASAK","2013-05-14",53.06,28.94,,,
"USR0000ASAK","2013-05-15",51.08,28.04,,,
"USR0000ASAK","2013-05-16",41.00,35.06,,,
"USR0000ASAK","2013-05-17",44.96,32.00,,,
"USR0000ASAK","2013-05-18",42.98,26.06,,,
"USR0000ASAK","2013-05-19",50.00,21.92,,,
"USR0000ASAK","2013-05-20",53.06,23.00,,,
"USR0000ASAK","2013-05-21",55.94,30.02,,,
"USR0000ASAK","2013-05-22",53.96,35.96,,,
"USR0000ASAK","2013-05-23",59.00,39.02,,,
"USR0000ASAK","2013-05-24",66.92,39.02,,,
"USR0000ASAK","2013-05-25",68.00,33.98,,,
"USR0000ASAK","2013-05-26",59.00,30.02,,,
"USR0000ASAK","2013-05-27",71.96,41.00,,,
"USR0000ASAK","2013-05-28",80.06,33.08,,,
"USR0000ASAK","2013-05-29",78.08,41.00,,,
"USR0000ASAK","2013-05-30",66.92,41.00,,,
"USR0000ASAK","2013-05-31",59.00,39.92,,,
"USR0000ASAK","2013-06-01",57.92,44.06,,,
"USR0000ASAK","2013-06-02",60.08,44.06,,,
"USR0000ASAK","2013-06-03",60.08,46.04,,,
"USR0000ASAK","2013-06-04",57.92,37.94,,,
"USR0000ASAK","2013-06-05",62.06,33.08,,,
"USR0000ASAK","2013-06-06",69.08,33.98,,,
"USR0000ASAK","2013-06-07",73.04,42.08,,,
"USR0000ASAK","2013-06-08",75.02,42.98,,,
"USR0000ASAK","2013-06-09",77.00,42.08,,,
"USR0000ASAK","2013-06-10",73.04,42.98,,,
"USR0000ASAK","2013-06-11",75.92,42.98,,,
"USR0000ASAK","2013-06-12",80.06,42.08,,,
"USR0000ASAK","2013-06-13",60.98,42.08,,,
"USR0000ASAK","2013-06-14",73.04,37.04,,,
"USR0000ASAK","2013-06-15",71.06,41.00,,,
"USR0000ASAK","2013-06-16",82.94,39.92,,,
"USR0000ASAK","2013-06-17",84.02,46.94,,,
"USR0000ASAK","2013-06-18",77.00,51.08,,,
"USR0000ASAK","2013-06-19",71.06,46.04,,,
"USR0000ASAK","2013-06-20",60.98,44.06,,,
"USR0000ASAK","2013-06-21",59.00,42.98,,,
"USR0000ASAK","2013-06-22",66.92,39.02,,,
"USR0000ASAK","2013-06-23",69.98,48.02,,,
"USR0000ASAK","2013-06-24",71.06,50.00,,,
"USR0000ASAK","2013-06-25",75.02,44.06,,,
"USR0000ASAK","2013-06-26",84.02,48.02,,,
"USR0000ASAK","2013-06-27",68.00,51.98,,,
"USR0000ASAK","2013-06-28",57.92,50.00,,,
"USR0000ASAK","2013-06-29",69.98,51.08,,,
"USR0000ASAK","2013-06-30",60.98,50.00,,,
"USR0000ASAK","2013-07-01",59.00,48.02,,,
"USR0000ASAK","2013-07-02",59.00,46.94,,,
"USR0000ASAK","2013-07-03",60.08,46.04,,,
"USR0000ASAK","2013-07-04",53.96,46.94,,,
"USR0000ASAK","2013-07-05",62.06,46.94,,,
"USR0000ASAK","2013-07-06",62.96,48.02,,,
"USR0000ASAK","2013-07-07",57.92,46.04,,,
"USR0000ASAK","2013-07-08",64.94,42.98,,,
"USR0000ASAK","2013-07-09",66.02,44.06,,,
"USR0000ASAK","2013-07-10",75.92,51.08,,,
"USR0000ASAK","2013-07-11",77.00,46.04,,,
"USR0000ASAK","2013-07-12",78.98,46.94,,,
"USR0000ASAK","2013-07-13",69.08,48.02,,,
"USR0000ASAK","2013-07-14",68.00,48.02,,,
"USR0000ASAK","2013-07-15",66.02,42.98,,,
"USR0000ASAK","2013-07-16",69.08,51.98,,,
"USR0000ASAK","2013-07-17",69.98,50.00,,,
"USR0000ASAK","2013-07-18",75.92,51.98,,,
"USR0000ASAK","2013-07-19",75.02,55.94,,,
"USR0000ASAK","2013-07-20",75.02,53.06,,,
"USR0000ASAK","2013-07-21",77.00,44.96,,,
"USR0000ASAK","2013-07-22",80.96,46.94,,,
"USR0000ASAK","2013-07-23",78.08,50.00,,,
"USR0000ASAK","2013-07-24",82.04,46.04,,,
"USR0000ASAK","2013-07-25",73.04,55.04,,,
"USR0000ASAK","2013-07-26",69.98,53.06,,,
"USR0000ASAK","2013-07-27",71.06,48.92,,,
"USR0000ASAK","2013-07-28",77.00,46.94,,,
"USR0000ASAK","2013-07-29",73.04,48.02,,,
"USR0000ASAK","2013-07-30",73.04,46.94,,,
"USR0000ASAK","2013-07-31",73.94,48.92,,,
"USR0000ASAK","2013-08-01",71.96,53.96,,,
"USR0000ASAK","2013-08-02",69.98,53.06,,,
"USR0000ASAK","2013-08-03",69.08,53.06,,,
"USR0000ASAK","2013-08-04",66.92,50.00,,,
"USR0000ASAK","2013-08-05",68.00,51.98,,,
"USR0000ASAK","2013-08-06",64.94,57.02,,,
"USR0000ASAK","2013-08-07",66.02,55.04,,,
"USR0000ASAK","2013-08-08",60.08,50.00,,,
"USR0000ASAK","2013-08-09",62.06,48.92,,,
"USR0000ASAK","2013-08-10",66.02,50.00,,,
"USR0000ASAK","2013-08-11",57.02,48.92,,,
"USR0000ASAK","2013-08-12",66.92,55.04,,,
"USR0000ASAK","2013-08-13",57.92,51.98,,,
"USR0000ASAK","2013-08-14",66.92,46.04,,,
"USR0000ASAK","2013-08-15",68.00,39.92,,,
"USR0000ASAK","2013-08-16",57.92,46.04,,,
"USR0000ASAK","2013-08-17",68.00,53.96,,,
"USR0000ASAK","2013-08-18",64.94,53.06,,,
"USR0000ASAK","2013-08-19",57.02,51.98,,,
"USR0000ASAK","2013-08-20",60.98,50.00,,,
"USR0000ASAK","2013-08-21",55.94,51.08,,,
"USR0000ASAK","2013-08-22",55.94,51.98,,,
"USR0000ASAK","2013-08-23",69.98,48.92,,,
"USR0000ASAK","2013-08-24",69.98,41.00,,,
"USR0000ASAK","2013-08-25",69.98,35.06,,,
"USR0000ASAK","2013-08-26",69.08,35.06,,,
"USR0000ASAK","2013-08-27",64.94,48.02,,,
"USR0000ASAK","2013-08-28",60.98,48.92,,,
"USR0000ASAK","2013-08-29",55.04,51.08,,,
"USR0000ASAK","2013-08-30",62.06,48.92,,,
"USR0000ASAK","2013-08-31",57.92,46.04,,,
"USR0000ASAK","2013-09-01",57.92,48.02,,,
"USR0000ASAK","2013-09-02",59.00,50.00,,,
"USR0000ASAK","2013-09-03",64.04,48.02,,,
"USR0000ASAK","2013-09-04",60.08,44.06,,,
"USR0000ASAK","2013-09-05",60.98,39.92,,,
"USR0000ASAK","2013-09-06",51.98,46.04,,,
"USR0000ASAK","2013-09-07",57.92,48.92,,,
"USR0000ASAK","2013-09-08",64.94,46.94,,,
"USR0000ASAK","2013-09-09",60.08,51.98,,,
"USR0000ASAK","2013-09-10",59.00,50.00,,,
"USR0000ASAK","2013-09-11",60.98,48.02,,,
"USR0000ASAK","2013-09-12",60.08,39.02,,,
"USR0000ASAK","2013-09-13",64.04,48.02,,,
"USR0000ASAK","2013-09-14",66.02,42.98,,,
"USR0000ASAK","2013-09-15",64.94,35.96,,,
"USR0000ASAK","2013-09-16",62.06,32.00,,,
"USR0000ASAK","2013-09-17",57.02,39.92,,,
"USR0000ASAK","2013-09-18",51.98,37.94,,,
"USR0000ASAK","2013-09-19",53.06,28.04,,,
"USR0000ASAK","2013-09-20",50.00,24.98,,,
"USR0000ASAK","2013-09-21",46.94,26.96,,,
"USR0000ASAK","2013-09-22",46.04,35.06,,,
"USR0000ASAK","2013-09-23",50.00,26.06,,,
"USR0000ASAK","2013-09-24",44.96,21.92,,,
"USR0000ASAK","2013-09-25",53.06,39.92,,,
"USR0000ASAK","2013-09-26",50.00,42.98,,,
"USR0000ASAK","2013-09-27",51.98,39.92,,,
"USR0000ASAK","2013-09-28",55.94,35.06,,,
"USR0000ASAK","2013-09-29",51.98,35.96,,,
"USR0000ASAK","2013-09-30",55.04,33.98,,,
"USR0000ASAK","2013-10-01",53.06,26.06,,,
"USR0000ASAK","2013-10-02",50.00,37.04,,,
"USR0000ASAK","2013-10-03",53.06,37.94,,,
"USR0000ASAK","2013-10-04",60.08,33.08,,,
"USR0000ASAK","2013-10-05",48.02,28.94,,,
"USR0000ASAK","2013-10-06",50.00,35.96,,,
"USR0000ASAK","2013-10-07",48.92,30.92,,,
"USR0000ASAK","2013-10-08",48.02,39.02,,,
"USR0000ASAK","2013-10-09",51.98,35.96,,,
"USR0000ASAK","2013-10-10",41.00,28.04,,,
"USR0000ASAK","2013-10-11",51.08,39.02,,,
"USR0000ASAK","2013-10-12",51.98,41.00,,,
"USR0000ASAK","2013-10-13",50.00,39.02,,,
"USR0000ASAK","2013-10-14",48.92,35.96,,,
"USR0000ASAK","2013-10-15",48.92,41.00,,,
"USR0000ASAK","2013-10-16",48.92,41.00,,,
"USR0000ASAK","2013-10-17",53.06,41.00,,,
"USR0000ASAK","2013-10-18",50.00,42.08,,,
"USR0000ASAK","2013-10-19",51.08,39.92,,,
"USR0000ASAK","2013-10-20",53.06,32.00,,,
"USR0000ASAK","2013-10-21",50.00,30.02,,,
"USR0000ASAK","2013-10-22",48.02,33.98,,,
"USR0000ASAK","2013-10-23",44.96,24.98,,,
"USR0000ASAK","2013-10-24",44.96,26.06,,,
"USR0000ASAK","2013-10-25",50.00,26.96,,,
"USR0000ASAK","2013-10-26",42.98,24.98,,,
"USR0000ASAK","2013-10-27",44.06,35.96,,,
"USR0000ASAK","2013-10-28",48.92,42.08,,,
"USR0000ASAK","2013-10-29",50.00,37.94,,,
"USR0000ASAK","2013-10-30",50.00,39.02,,,
"USR0000ASAK","2013-10-31",46.04,35.96,,,
"USR0000ASAK","2013-11-01",42.98,37.04,,,
"USR0000ASAK","2013-11-02",42.98,33.08,,,
"USR0000ASAK","2013-11-03",50.00,42.08,,,
"USR0000ASAK","2013-11-04",41.00,28.94,,,
"USR0000ASAK","2013-11-05",42.08,24.08,,,
"USR0000ASAK","2013-11-06",33.98,17.06,,,
"USR0000ASAK","2013-11-07",30.92,19.94,,,
"USR0000ASAK","2013-11-08",35.06,15.98,,,
"USR0000ASAK","2013-11-09",30.92,17.96,,,
"USR0000ASAK","2013-11-10",39.92,30.92,,,
"USR0000ASAK","2013-11-11",33.98,15.98,,,
"USR0000ASAK","2013-11-12",26.96,5.00,,,
"USR0000ASAK","2013-11-13",28.94,15.08,,,
"USR0000ASAK","2013-11-14",42.98,24.98,,,
"USR0000ASAK","2013-11-15",30.02,14.00,,,
"USR0000ASAK","2013-11-16",28.04,10.04,,,
"USR0000ASAK","2013-11-17",21.02,-0.04,,,
"USR0000ASAK","2013-11-18",17.06,-7.06,,,
"USR0000ASAK","2013-11-19",17.06,-9.04,,,
"USR0000ASAK","2013-11-20",8.06,1.94,,,
"USR0000ASAK","2013-11-21",21.02,6.98,,,
"USR0000ASAK","2013-11-22",30.02,17.96,,,
"USR0000ASAK","2013-11-23",33.08,15.08,,,
"USR0000ASAK","2013-11-24",32.00,21.02,,,
"USR0000ASAK","2013-11-25",28.04,23.00,,,
"USR0000ASAK","2013-11-26",30.92,24.98,,,
"USR0000ASAK","2013-11-27",32.00,19.94,,,
"USR0000ASAK","2013-11-28",19.94,-7.96,,,
"USR0000ASAK","2013-11-29",8.96,-14.98,,,
"USR0000ASAK","2013-11-30",5.00,-18.04,,,
"USR0000ASAK","2013-12-01",8.06,-14.98,,,
"USR0000ASAK","2013-12-02",10.94,-9.04,,,
"USR0000ASAK","2013-12-03",12.92,-5.08,,,
"USR0000ASAK","2013-12-04",24.98,15.08,,,
"USR0000ASAK","2013-12-05",30.02,24.98,,,
"USR0000ASAK","2013-12-06",33.98,30.02,,,
"USR0000ASAK","2013-12-07",33.98,30.92,,,
"USR0000ASAK","2013-12-08",32.00,26.06,,,
"USR0000ASAK","2013-12-09",32.00,28.04,,,
"USR0000ASAK","2013-12-10",30.02,19.94,,,
"USR0000ASAK","2013-12-11",17.96,-5.08,,,
"USR0000ASAK","2013-12-12",8.06,-9.04,,,
"USR0000ASAK","2013-12-13",17.96,3.02,,,
"USR0000ASAK","2013-12-14",19.04,14.00,,,
"USR0000ASAK","2013-12-15",15.98,-2.92,,,